Overview Statistics Trail Chart Weather Telemetry Raw packets
 

This is the latest recevied weather packets stored in our database for station/object KQ4KX. If no packets are shown the sender has not sent any weather packets the latest 10 day(s).

<< 76 77 78 79 80 81 82 >>
Time Temp. Humidity Pressure Rain* Wind** Luminosity Snow
1788035228 30.56° C 76% 1016.7 hPa 0 mm - - -
1788035083 30.56° C 76% 1016.7 hPa 0 mm - - -
1788034784 32.22° C 72% 1016.6 hPa 0 mm - - -
1788034635 34.44° C 62% 1016.3 hPa 0 mm - - -
1788034483 34.44° C 62% 1016.3 hPa 0 mm - - -
1788033823 34.44° C 63% 1016.5 hPa 0 mm - - -
1788032863 34.44° C 63% 1016.5 hPa 0 mm - - -
1788032563 34.44° C 62% 1016.6 hPa 0 mm - - -
1788031904 34.44° C 61% 1016.7 hPa 0 mm - - -
1788031573 34.44° C 62% 1016.7 hPa 0 mm - - -
1788031274 35° C 62% 1016.8 hPa 0 mm - - -
1788031102 35° C 61% 1016.8 hPa 0 mm - - -
1788030972 35° C 61% 1016.8 hPa 0 mm - - -
1788030900 35° C 62% 1016.8 hPa 0 mm - - -
1788030672 35° C 62% 1016.8 hPa 0 mm - - -
1788030372 34.44° C 64% 1016.8 hPa 0 mm - - -
1788030072 34.44° C 66% 1016.7 hPa 0 mm - - -
1788029901 33.89° C 66% 1016.7 hPa 0 mm - - -
1788029773 33.89° C 66% 1016.7 hPa 0 mm - - -
1788029473 33.89° C 64% 1016.8 hPa 0 mm - - -
1788029172 34.44° C 64% 1016.8 hPa 0 mm - - -
1788028543 34.44° C 64% 1017 hPa 0 mm - - -
1788028442 34.44° C 67% 1017 hPa 0 mm - - -
1788028243 34.44° C 67% 1017 hPa 0 mm - - -
1788027942 34.44° C 68% 1017 hPa 0 mm - - -

* Rain latest hour (hover to see other rain measurements)
** Current wind speed in m/s (hover to see current wind gust speed)